Regional Weather Roundup
Issued by NWS

Home | Current Version | Previous Version | Text Only | Print | Product List | Glossary On
Versions: 1 2 3 4 5 6 7 8 9 10 11 12 13 14 15 16 17 18 19 20 21 22 23 24 25 26 27 28 29 30 31 32 33 34 35 36 37 38 39 40 41 42 43 44 45 46 47 48 49 50
000
ASUS44 KJAN 222310
RWRMS

MISSISSIPPI HOURLY WEATHER ROUNDUP
NATIONAL WEATHER SERVICE JACKSON MS
500 PM CST SAT NOV 22 2014

NOTE: "FAIR: INDICATES FEW OR NO CLOUDS BELOW 12,000 FEET WITH NO
SIGNIFICANT WEATHER AND/OR OBSTRUCTIONS TO VISIBILITY.

MSZ001>002-007>008-010>013-018>021-025>028-034>036-230000-
NORTHWEST MISSISSIPPI

CITY           SKY/WX    TMP DP  RH WIND       PRES   REMARKS
CLARKSDALE     FAIR      63  50  63 SE6       30.04F
CLEVELAND      FAIR      63  53  71 SE6       30.02S
GREENWOOD      CLOUDY    63  47  55 SE5       30.05S
GREENVILLE     MOCLDY    64  53  67 SE9       30.02S
GRENADA        FAIR      61  46  59 SE6       30.06S
OLIVE BRANCH   MOCLDY    57  43  58 SE5       30.05F
OXFORD         FAIR      59  41  51 SE3       30.08F
TUNICA         PTCLDY    59  46  63 E5        30.04F
$$

MSZ003>006-009-014>017-022>024-029>033-037>039-230000-
NORTHEAST MISSISSIPPI

CITY           SKY/WX    TMP DP  RH WIND       PRES   REMARKS
COLUMBUS AFB   CLOUDY    59  48  68 SE6       30.10F
CORINTH        FAIR      59  37  44 SE6       30.08F
GOLDN TRIANGLE CLEAR     63  48  59 SE9       30.09F
STARKVILLE     FAIR      61  50  67 SE3       30.09S
TUPELO         CLOUDY    63  45  51 S8        30.09F
$$

MSZ040-058-230000-
CENTRAL MISSISSIPPI

CITY           SKY/WX    TMP DP  RH WIND       PRES   REMARKS
JACKSON INTL   MOCLDY    64  50  60 SE7       30.05S
JACKSON HAWKNS CLOUDY    65  49  56 SE9       30.05F
MERIDIAN KEY   CLOUDY    64  52  64 SE3       30.09F
MERIDIAN NAS   CLOUDY    63  52  67 SE6       30.10F
RAYMOND        FAIR      63  57  82 MISG      30.04F
VICKSBURG      CLOUDY    67  54  63 SE9       30.02S
$$

MSZ059>079-230000-
SOUTH MISSISSIPPI

CITY           SKY/WX    TMP DP  RH WIND       PRES   REMARKS
BROOKHAVEN     FAIR      63  54  72 CALM      30.06F
HATTIESBURG    CLOUDY    64  55  72 SE6       30.07F
MCCOMB         CLOUDY    64  53  67 SE6       30.03F
NATCHEZ        MOCLDY    66  55  68 SE9       30.01F
PINE BELT      CLOUDY    64  52  63 SE3       30.08F
$$

MSZ080>082-230000-
COASTAL MISSISSIPPI

CITY           SKY/WX    TMP DP  RH WIND       PRES   REMARKS
BAY ST LOUIS   PTCLDY    64  55  72 E8        30.06F
BILOXI         CLOUDY    64  59  85 E9        30.06F
PASCAGOULA     CLOUDY    64  58  80 E6        30.08F
GULFPORT       CLOUDY    64  58  80 E10       30.06F
$$


USA.gov is the U.S. government's official web portal to all federal, state and local government web resources and services.